Waarnemingen

Advertentie
Mijn weer
Rheinstetten, Duitsland (10731): temperatuur & dauwpunt: 16.08.2018 01:00:00 - 22.08.2018 01:00:00 (CEST)Rheinstetten, Duitsland (10731): temperatuur 5cm & temperatuur -5cm: 16.08.2018 01:00:00 - 22.08.2018 01:00:00 (CEST)Rheinstetten, Duitsland (10731): temperatuur -20cm & temperatuur -100cm: 16.08.2018 01:00:00 - 22.08.2018 01:00:00 (CEST)Rheinstetten, Duitsland (10731): windsnelheid & windstoten: 16.08.2018 01:00:00 - 22.08.2018 01:00:00 (CEST)Rheinstetten, Duitsland (10731): windrichting: 16.08.2018 01:00:00 - 22.08.2018 01:00:00 (CEST)Rheinstetten, Duitsland (10731): luchtdruk: 16.08.2018 01:00:00 - 22.08.2018 01:00:00 (CEST)Rheinstetten, Duitsland (10731): zicht: 16.08.2018 01:00:00 - 22.08.2018 01:00:00 (CEST)Rheinstetten, Duitsland (10731): Zonneschijnduur: 16.08.2018 01:00:00 - 22.08.2018 01:00:00 (CEST)Rheinstetten, Duitsland (10731): neerslag: 16.08.2018 01:00:00 - 22.08.2018 01:00:00 (CEST)
Datum & Tijd tt [°C] td [°C] tt 5cm [°C] tt -5cm [°C] tt -20cm [°C] tt -100cm [°C] ff [km/u] ff [kn] fx [km/u] fx [kn] dd ppp [hPa] vv [km] sd [min] rr [mm]
22.08.2018 01:00:00 18,8 13,9 18,0 25,5 29,1 24,7 4 2 6 4 NO 1017,6 29 0 0,0
22.08.2018 00:00:00 19,8 14,6 18,2 26,5 29,7 24,7 4 2 4 2 NNO 1017,7 29 0 0,0
21.08.2018 23:00:00 21,4 14,2 19,2 27,7 30,4 24,7 2 1 7 4 ZZO 1017,5 38 0 0,0
21.08.2018 22:00:00 22,9 14,0 21,2 29,2 31,1 24,7 5 3 10 5 ONO 1017,1 15 0 0,0
21.08.2018 21:00:00 27,1 13,6 24,3 31,1 31,7 24,7 8 4 13 7 NNO 1016,5 42 10 0,0
21.08.2018 20:00:00 29,2 13,2 29,0 33,4 32,1 24,7 10 5 17 9 N 1016,1 50 60 0,0
21.08.2018 19:00:00 30,0 13,3 31,4 35,8 32,1 24,7 16 8 21 12 NNO 1016,1 41 60 0,0
21.08.2018 18:00:00 30,5 13,5 34,3 37,6 31,8 24,7 11 6 23 12 NNW 1016,3 28 60 0,0
21.08.2018 17:00:00 30,9 14,0 35,4 38,7 31,2 24,7 12 7 26 14 NW 1016,7 23 60 0,0
21.08.2018 16:00:00 30,7 13,9 35,9 39,0 30,3 24,7 13 7 25 13 N 1017,0 23 55 0,0
21.08.2018 15:00:00 30,3 14,1 37,2 38,4 29,3 24,7 12 7 28 15 N 1017,5 23 57 0,0
21.08.2018 14:00:00 28,7 14,3 31,7 36,0 28,2 24,7 12 6 23 12 NNO 1018,2 32 41 0,0
21.08.2018 13:00:00 28,5 14,2 35,2 35,0 27,1 24,7 14 8 22 12 ONO 1018,7 20 51 0,0
21.08.2018 12:00:00 27,6 14,9 33,0 31,7 26,2 24,7 12 6 24 13 NO 1019,0 31 38 0,0
21.08.2018 11:00:00 25,7 15,2 28,7 28,7 25,5 24,7 14 7 21 12 ONO 1019,6 34 29 0,0
21.08.2018 10:00:00 23,8 15,1 26,2 26,0 25,2 24,7 14 8 22 12 NO 1019,8 32 46 0,0
21.08.2018 09:00:00 22,7 15,0 25,0 23,8 25,1 24,6 13 7 16 9 ONO 1019,9 22 33 0,0
21.08.2018 08:00:00 19,9 15,5 19,7 22,1 25,4 24,6 6 3 8 5 NO 1019,9 26 19 0,0
21.08.2018 07:00:00 17,0 14,7 16,0 21,9 25,8 24,6 4 2 8 4 O 1019,7 25 0 0,0
21.08.2018 06:00:00 16,9 14,8 15,5 22,3 26,2 24,6 5 3 7 4 O 1019,6 26 0 0,0
21.08.2018 05:00:00 16,9 14,5 15,7 22,8 26,7 24,6 5 3 6 3 ONO 1019,7 26 0 0,0
21.08.2018 04:00:00 18,6 15,1 17,1 23,6 27,1 24,6 5 3 8 5 ONO 1019,8 30 0 0,0
21.08.2018 03:00:00 18,7 15,1 18,2 24,3 27,6 24,6 4 2 7 4 O 1019,9 31 0 0,0
21.08.2018 02:00:00 21,5 15,0 19,7 25,0 28,0 24,6 5 3 13 7 NNO 1019,9 33 0 0,0
21.08.2018 01:00:00 21,0 15,6 20,8 25,8 28,5 24,6 4 2 9 5 NO 1019,8 33 0 0,0
21.08.2018 00:00:00 22,6 15,5 21,1 26,2 29,1 24,5 6 4 10 6 N 1019,5 39 0 0,0
20.08.2018 23:00:00 20,0 15,0 18,6 26,9 29,7 24,6 4 2 6 3 ZZO 1019,1 20 0 0,0
20.08.2018 22:00:00 22,6 15,4 20,7 28,3 30,3 24,6 3 2 7 4 WNW 1018,4 41 0 0,0
20.08.2018 21:00:00 25,3 15,7 22,6 30,1 30,9 24,6 5 3 11 6 WNW 1017,9 47 1 0,0
20.08.2018 20:00:00 27,4 15,2 27,3 32,3 31,3 24,6 7 4 18 10 NW 1017,5 62 60 0,0
20.08.2018 19:00:00 28,6 14,8 30,5 34,4 31,4 24,6 11 6 24 13 NW 1017,5 53 55 0,0
20.08.2018 18:00:00 28,2 14,7 30,1 36,0 31,2 24,6 12 6 25 13 NW 1017,8 49 48 0,0
20.08.2018 17:00:00 29,5 15,1 33,7 36,6 30,8 24,6 12 6 24 13 W 1018,0 25 33 0,0
20.08.2018 16:00:00 28,2 15,0 31,2 37,6 30,2 24,6 13 7 34 18 NNW 1018,3 34 35 0,0
20.08.2018 15:00:00 28,8 14,2 33,8 38,2 29,1 24,6 14 8 28 15 W 1018,6 23 58 0,0
20.08.2018 14:00:00 27,4 14,2 33,2 37,0 27,9 24,6 10 5 28 15 WZW 1018,9 37 58 0,0
20.08.2018 13:00:00 26,8 14,0 33,0 34,8 26,7 24,6 10 5 22 12 WNW 1019,4 17 60 0,0
20.08.2018 12:00:00 26,3 14,4 31,1 31,9 25,7 24,6 10 6 20 11 W 1020,0 16 60 0,0
20.08.2018 11:00:00 24,7 14,0 28,9 28,7 24,9 24,6 12 7 22 12 WZW 1020,2 26 60 0,0
20.08.2018 10:00:00 23,1 13,3 26,2 25,5 24,5 24,5 12 6 20 11 WZW 1020,3 16 60 0,0
20.08.2018 09:00:00 20,7 13,3 22,7 22,8 24,4 24,5 13 7 18 10 WZW 1020,1 17 60 0,0
20.08.2018 08:00:00 18,9 12,8 19,7 21,1 24,6 24,5 8 4 10 6 WZW 1019,7 25 57 0,0
20.08.2018 07:00:00 16,5 12,5 15,2 20,5 25,0 24,5 8 4 10 5 ZW 1019,6 24 0 0,0
20.08.2018 06:00:00 16,7 12,7 15,3 20,9 25,5 24,5 8 5 14 8 ZW 1019,8 29 0 0,0
20.08.2018 05:00:00 17,1 12,6 15,7 21,4 26,0 24,5 9 5 14 8 ZW 1019,7 31 0 0,0
20.08.2018 04:00:00 16,7 12,8 14,7 22,0 26,5 24,4 6 3 9 5 ZZW 1019,7 29 0 0,0
20.08.2018 03:00:00 17,5 13,5 15,3 22,8 27,1 24,4 5 3 10 6 ZW 1019,7 30 0 0,0
20.08.2018 02:00:00 18,0 13,3 16,3 23,6 27,7 24,4 8 4 10 5 ZW 1019,8 30 0 0,0
20.08.2018 01:00:00 18,8 13,7 16,8 24,4 28,3 24,4 6 3 8 5 ZZW 1019,9 32 0 0,0
20.08.2018 00:00:00 19,0 14,1 17,2 25,4 29,0 24,4 7 4 8 5 ZZW 1019,6 34 0 0,0
19.08.2018 23:00:00 19,4 13,4 17,4 26,7 29,8 24,4 3 1 6 4 Z 1019,2 34 0 0,0
19.08.2018 22:00:00 21,4 12,8 19,5 28,3 30,5 24,4 3 2 6 4 ZZW 1018,9 46 0 0,0
19.08.2018 21:00:00 24,7 15,2 22,3 30,3 31,1 24,4 5 3 11 6 WZW 1018,4 30 17 0,0
19.08.2018 20:00:00 28,5 11,9 28,1 32,7 31,4 24,4 10 5 19 11 W 1018,0 70 60 0,0
19.08.2018 19:00:00 29,8 11,0 31,2 35,1 31,5 24,4 14 8 21 12 W 1017,9 37 60 0,0
19.08.2018 18:00:00 29,7 11,5 32,7 36,9 31,2 24,4 14 8 24 13 WNW 1018,4 32 60 0,0
19.08.2018 17:00:00 30,0 12,1 33,8 37,9 30,5 24,4 13 7 22 12 W 1018,7 24 60 0,0
19.08.2018 16:00:00 29,3 11,8 34,8 38,1 29,6 24,4 11 6 23 12 NW 1019,4 16 60 0,0
19.08.2018 15:00:00 28,3 10,7 32,9 37,3 28,6 24,4 10 5 19 10 W 1020,0 18 60 0,0
19.08.2018 14:00:00 27,5 9,5 33,9 35,7 27,6 24,4 7 4 15 8 WNW 1020,7 28 54 0,0
19.08.2018 13:00:00 27,2 9,4 32,7 33,7 26,5 24,4 5 3 14 7 N 1021,3 24 52 0,0
19.08.2018 12:00:00 24,4 10,8 28,7 30,7 25,7 24,4 7 4 13 7 NNW 1021,9 27 33 0,0
19.08.2018 11:00:00 23,8 11,7 27,7 28,5 25,1 24,4 7 4 13 7 NNW 1022,3 21 51 0,0
19.08.2018 10:00:00 22,2 12,0 24,7 25,3 24,7 24,4 4 2 8 4 NW 1022,2 23 29 0,0
19.08.2018 09:00:00 20,0 13,9 21,6 23,3 24,7 24,4 5 3 6 4 ZW 1022,2 20 17 0,0
19.08.2018 08:00:00 17,8 13,1 18,4 21,9 25,0 24,4 3 1 6 3 ZZO 1022,2 25 0 0,0
19.08.2018 07:00:00 16,5 13,5 16,5 21,8 25,3 24,3 3 2 4 2 OZO 1022,2 20 0 0,0
19.08.2018 06:00:00 16,3 13,5 15,6 22,0 25,7 24,3 2 1 4 2 ZO 1022,0 18 0 0,0
19.08.2018 05:00:00 16,6 13,6 16,2 22,4 26,1 24,3 3 2 7 4 Z 1021,9 19 0 0,0
19.08.2018 04:00:00 17,4 13,9 16,8 23,1 26,5 24,3 2 1 4 2 O 1021,8 20 0 0,0
19.08.2018 03:00:00 17,5 13,8 17,7 23,4 27,0 24,3 2 1 6 3 Z 1021,7 20 0 0,0
19.08.2018 02:00:00 17,3 14,2 16,2 23,8 27,5 24,3 3 1 6 3 W 1021,7 17 0 0,0
19.08.2018 01:00:00 18,6 14,6 17,1 24,9 28,1 24,3 4 2 8 4 ZW 1022,0 16 0 0,0
19.08.2018 00:00:00 20,4 15,0 19,3 26,1 28,7 24,3 2 1 6 4 ZZO 1021,9 21 0 0,0
18.08.2018 23:00:00 20,3 14,7 20,3 26,8 29,3 24,3 4 2 5 3 ZZO 1021,6 20 0 0,0
18.08.2018 22:00:00 20,7 14,2 19,0 27,9 30,0 24,3 4 2 5 3 ZW 1021,2 23 0 0,0
18.08.2018 21:00:00 24,7 13,8 22,0 29,9 30,5 24,3 4 2 9 5 WNW 1020,4 31 14 0,0
18.08.2018 20:00:00 26,6 13,7 26,4 32,3 30,9 24,3 7 4 13 7 W 1019,8 32 60 0,0
18.08.2018 19:00:00 27,3 13,2 29,2 34,7 30,9 24,4 7 4 21 11 W 1019,7 27 60 0,0
18.08.2018 18:00:00 27,1 13,9 31,1 36,4 30,5 24,4 10 5 21 12 WNW 1019,9 27 60 0,0
18.08.2018 17:00:00 26,9 14,4 31,8 37,4 29,9 24,4 6 4 29 15 W 1020,2 22 60 0,0
18.08.2018 16:00:00 26,7 14,7 32,6 37,4 29,0 24,4 10 5 21 11 W 1020,5 19 60 0,0
18.08.2018 15:00:00 26,2 14,2 31,2 36,7 27,9 24,4 13 7 23 12 W 1021,0 16 57 0,0
18.08.2018 14:00:00 25,5 13,8 33,1 35,3 26,8 24,4 8 4 22 12 NNW 1021,7 22 59 0,0
18.08.2018 13:00:00 24,0 14,0 29,1 33,0 25,7 24,4 8 4 19 10 WNW 1021,8 19 59 0,0
18.08.2018 12:00:00 23,2 14,0 29,2 30,2 24,7 24,4 9 5 20 11 N 1022,2 16 60 0,0
18.08.2018 11:00:00 21,7 13,7 26,7 27,1 23,9 24,3 8 4 16 8 N 1022,4 14 60 0,0
18.08.2018 10:00:00 20,0 14,0 23,7 24,0 23,6 24,3 9 5 14 8 NW 1022,3 14 60 0,0
18.08.2018 09:00:00 17,1 16,8 18,7 21,3 23,6 24,3 4 2 9 5 ZW 1022,1 3,8 1 0,0
18.08.2018 08:00:00 15,8 15,6 16,3 20,0 23,8 24,3 8 5 11 6 ZZW 1021,9 0,8 0 0,0
18.08.2018 07:00:00 14,4 13,9 13,5 19,5 24,2 24,3 4 2 5 3 ZZW 1021,7 6 0 0,0
18.08.2018 06:00:00 15,5 15,3 14,7 19,9 24,6 24,3 5 3 9 5 ZW 1021,3 5 0 0,0
18.08.2018 05:00:00 15,9 15,5 14,1 20,5 25,1 24,2 4 2 7 4 W 1020,8 7 0 0,0
18.08.2018 04:00:00 16,2 15,9 14,5 21,1 25,6 24,2 3 1 5 3 ZW 1020,6 7 0 0,0
18.08.2018 03:00:00 17,3 16,7 15,9 21,9 26,1 24,2 5 3 7 4 NW 1020,3 11 0 0,0
18.08.2018 02:00:00 18,2 17,2 17,2 22,7 26,5 24,2 4 2 7 4 WNW 1020,2 13 0 0,0
18.08.2018 01:00:00 18,6 17,5 18,0 23,2 27,0 24,2 4 2 6 4 ZO 1020,0 13 0 0,0
18.08.2018 00:00:00 18,8 17,4 18,3 23,8 27,6 24,2 4 2 8 5 WZW 1019,9 17 0 0,0
17.08.2018 23:00:00 19,0 17,5 18,5 24,4 28,3 24,2 3 2 17 9 Z 1019,0 22 0 0,0
17.08.2018 22:00:00 20,1 16,6 18,8 25,1 29,1 24,2 8 4 16 9 ZW 1018,6 29 0 0,1
17.08.2018 21:00:00 19,7 16,7 19,0 26,8 29,9 24,2 5 3 25 14 Z 1017,4 22 0 0,5
17.08.2018 20:00:00 22,0 15,6 22,0 29,2 30,7 24,2 18 10 28 15 W 1016,7 35 0 0,0
17.08.2018 19:00:00 24,1 12,8 24,2 31,4 31,2 24,2 17 9 42 23 WNW 1014,7 44 0 0,0
17.08.2018 18:00:00 27,1 16,2 27,5 34,7 31,4 24,2 16 8 29 16 NW 1014,4 27 9 0,0
17.08.2018 17:00:00 30,9 13,5 36,0 38,2 30,9 24,2 12 6 17 9 NW 1013,8 26 60 0,0
17.08.2018 16:00:00 30,5 13,7 35,1 37,7 30,2 24,2 10 5 26 14 N 1013,9 33 51 0,0
17.08.2018 15:00:00 30,8 12,7 37,8 38,9 29,1 24,2 10 6 21 11 NNW 1014,1 15 60 0,0
17.08.2018 14:00:00 29,5 13,9 36,7 37,2 27,9 24,2 10 5 21 11 N 1014,4 17 60 0,0
17.08.2018 13:00:00 28,2 13,2 33,8 35,0 26,7 24,1 9 5 23 13 NNW 1014,8 30 60 0,0
17.08.2018 12:00:00 27,1 13,9 33,5 32,4 25,6 24,1 10 5 17 9 NNW 1014,9 20 60 0,0
17.08.2018 11:00:00 25,8 13,7 29,9 28,9 24,8 24,1 9 5 19 11 W 1014,9 18 60 0,0
17.08.2018 10:00:00 24,2 14,2 27,1 25,9 24,3 24,1 14 7 21 11 WZW 1014,4 14 60 0,0
17.08.2018 09:00:00 21,7 14,4 23,5 23,1 24,2 24,1 13 7 18 10 WZW 1014,3 15 60 0,0
17.08.2018 08:00:00 18,4 14,7 19,5 21,2 24,4 24,1 4 2 8 4 ZZW 1014,0 19 49 0,0
17.08.2018 07:00:00 14,8 13,1 13,7 20,5 24,8 24,0 2 1 6 3 WZW 1013,7 15 0 0,0
17.08.2018 06:00:00 14,5 13,3 13,3 21,0 25,3 24,0 4 2 6 3 ZZW 1013,1 13 0 0,0
17.08.2018 05:00:00 15,1 13,6 14,2 21,6 25,8 24,0 5 3 8 4 ZO 1012,7 14 0 0,0
17.08.2018 04:00:00 16,8 14,7 15,5 22,3 26,3 24,0 7 4 11 6 WZW 1012,7 16 0 0,0
17.08.2018 03:00:00 16,6 14,0 15,2 23,0 26,9 24,0 5 3 8 4 NNW 1012,7 19 0 0,0
17.08.2018 02:00:00 17,4 14,4 16,0 23,8 27,5 24,0 2 1 6 3 NO 1012,9 21 0 0,0
17.08.2018 01:00:00 17,9 14,2 16,5 24,7 28,1 24,0 3 2 4 2 ZZO 1013,3 24 0 0,0
17.08.2018 00:00:00 19,1 14,2 17,4 25,9 28,8 24,0 0 0 3 2 N 1013,0 30 0 0,0
16.08.2018 23:00:00 20,3 14,4 18,5 27,1 29,5 24,0 3 1 4 2 ZZW 1012,9 26 0 0,0
16.08.2018 22:00:00 22,6 14,0 20,4 28,8 30,2 24,0 4 2 6 3 ZO 1012,7 38 0 0,0
16.08.2018 21:00:00 25,6 14,0 23,2 30,9 30,8 24,0 4 2 9 5 NO 1012,3 39 20 0,0
16.08.2018 20:00:00 29,7 12,7 29,9 33,5 31,1 24,1 6 3 10 5 NNW 1012,3 45 60 0,0
16.08.2018 19:00:00 30,4 12,1 32,2 35,8 31,1 24,1 7 4 14 7 NNW 1012,4 35 60 0,0
16.08.2018 18:00:00 30,7 12,2 34,7 37,5 30,7 24,1 8 5 18 10 NNW 1012,8 23 60 0,0
16.08.2018 17:00:00 31,0 13,0 35,8 38,8 30,0 24,1 8 4 17 9 N 1013,2 24 60 0,0
16.08.2018 16:00:00 31,2 12,5 35,4 39,1 28,9 24,1 6 4 16 9 W 1013,8 23 60 0,0
16.08.2018 15:00:00 30,2 13,0 35,2 38,1 27,7 24,1 9 5 19 11 WZW 1014,6 15 60 0,0
16.08.2018 14:00:00 28,4 12,5 34,4 36,4 26,4 24,1 10 5 16 9 WNW 1015,2 20 60 0,0
16.08.2018 13:00:00 27,5 13,2 34,6 34,0 25,0 24,1 9 5 16 9 N 1015,9 21 60 0,0
16.08.2018 12:00:00 26,1 14,5 30,9 31,0 23,9 24,1 5 3 13 7 NO 1016,5 19 60 0,0
16.08.2018 11:00:00 23,5 13,8 27,5 27,6 22,9 24,1 6 3 10 5 NW 1017,1 24 60 0,0
16.08.2018 10:00:00 20,9 13,1 25,4 24,1 22,4 24,2 6 3 9 5 NW 1017,5 9 60 0,0
16.08.2018 09:00:00 19,0 12,8 21,1 21,0 22,2 24,2 3 1 4 2 ONO 1017,9 19 60 0,0
16.08.2018 08:00:00 16,9 13,3 17,4 18,9 22,4 24,1 0 0 4 2 N 1018,2 17 60 0,0
16.08.2018 07:00:00 12,3 11,1 12,0 18,1 22,7 24,2 4 2 4 2 ZW 1018,4 12 2 0,0
16.08.2018 06:00:00 12,4 11,6 11,0 18,5 23,2 24,2 4 2 5 3 ZO 1018,3 14 0 0,0
16.08.2018 05:00:00 13,0 12,0 11,2 19,0 23,6 24,1 3 1 4 2 NNW 1018,5 14 0 0,0
16.08.2018 04:00:00 13,2 12,3 12,0 19,6 24,1 24,2 2 1 5 3 ZW 1018,9 18 0 0,0
16.08.2018 03:00:00 13,7 12,1 12,6 20,3 24,6 24,2 2 1 5 3 ZO 1019,1 19 0 0,0
16.08.2018 02:00:00 14,6 12,9 13,4 20,9 25,1 24,2 3 2 5 3 ZO 1019,3 20 0 0,0
16.08.2018 01:00:00 15,0 12,8 13,9 21,8 25,7 24,2 3 2 4 2 Z 1019,5 23 0 0,0

tt = temperatuur
td = dauwpunt
tt 5cm = temperatuur 5cm
tt -5cm = temperatuur -5cm
tt -20cm = temperatuur -20cm
tt -100cm = temperatuur -100cm
ff = windsnelheid
fx = windstoten
dd = windrichting
ppp = luchtdruk
vv = zicht
sd = Zonneschijnduur
rr = neerslag

Weerstations in de omgeving